Pour une meilleure expérience, merci d'orienter votre écran en mode paysage.

rotate

Club de Triathlon : TRIATHLON CLUB TORCY

Le club de Triathlon TRIATHLON CLUB TORCY se situe dans la ville de BUSSY SAINT GEORGES (77 - Seine-et-Marne). Le club est affilié à la ligue régionale ILE-DE-FRANCE de la FFTRI - Fédération Française de Triathlon. Retrouvez ici toute l'activité du club de Triathlon TRIATHLON CLUB TORCY - Résultats, podiums, objectifs, effectifs....

Site internet : https://www.torcytriathlon.com

Résultats de la saison en cours

CltClt FDateEpreuveNomIPRNbTempsGAClt/GAIP
65 01/10/2022BayMan (50) - Triathlon L Emmanuel BATAIL906344h55'59''MV1991Sa course
214 01/10/2022BayMan (50) - Triathlon L Franck LESUR586345h27'24''MV5265Sa course
5304701/10/2022BayMan (50) - Triathlon L Marie HONDERMARCK76346h33'18''FS4613Sa course
6047001/10/2022BayMan (50) - Triathlon L Cendrine BELAZ06347h32'26''FS481Sa course
21 17/09/2022One2Tri - Lac d'Aiguebelette (73) - Triathlon L Stephane VERRIER961565h23'13''MV3188Sa course
85 11/09/2022TriaLong Ile de France (77) - L Vincent JONNIAUX582344h51'14''MV21863Sa course
59 11/09/2022TriaLong Ile de France (77) - L Fabien FRAPPART742344h43'46''MV21175Sa course
207 11/09/2022TriaCourt Ile de France (77) - M Jean marie LARUE05742h13'47''MV22864Sa course
13 11/09/2022TriaLong Ile de France (77) - L Emmanuel BATAIL902344h16'40''MV12100Sa course
308 11/09/2022Triathlon de Dinard Côte d'Emeraude (35) - M Catala THOMAS446592h57'22''MSE16752Sa course
198 04/09/2022Triathlon de l'Omois (02) - S Jean-marc ZUTTER03551h27'04''MV5245Sa course
35 04/09/2022Triathlon de l'Omois (02) - S Yvernault YVERNAULT03551h11'49''MS4793Sa course
3004404/09/2022Triathlon de l'Omois (02) - S Mylene ZIMMERMANN03551h38'33''FV3416Sa course
187 04/09/2022Triathlon de l'Omois (02) - S Dominique WILS03551h26'06''MV41748Sa course
169 04/09/2022Triathlon de l'Omois (02) - S Yannick FICHOUX03551h24'46''MV11953Sa course
2894204/09/2022Triathlon de l'Omois (02) - S Cendrine BELAZ03551h36'55''FS4719Sa course
15 04/09/2022Triathlon de l'Omois (02) - S Alexandre DAILLY883551h07'15''MS33102Sa course
94 04/09/2022Triathlon de l'Omois (02) - S Nicolas SALES503551h18'28''MV11175Sa course
106 04/09/2022Triathlon de l'Omois (02) - S Jean-marc LIBERT03551h19'57''MV6271Sa course
87 04/09/2022Triathlon de l'Omois (02) - S Nicolas DEWAELE03551h17'29''MV1977Sa course
111 27/08/2022Duathlon du Château de Chantilly (60) - S Christophe POKIVAT02241h42'23''MV1151Sa course
56 21/08/2022Triathlon du Mont Blanc (74) - L Alexandre DAILLY883005h15'29''082Sa course
297 21/08/2022IronMan de Vichy (03) - Triathlon XXL Olivier LOUYS096410h35'19''M35-395267Sa course
210 21/08/2022Triathlon de la Ferté Bernard (72) - M Catala THOMAS442802h46'11''MS32723Sa course
99 20/08/2022Triathlon de la Madeleine (73) - XL Franck LESUR582118h39'21''MV5350Sa course
2514920/08/2022Triathlon de la Madeleine (73) - M Marie HONDERMARCK72795h53'13''FS445Sa course
119 14/08/2022Duathlon de Nevers Magny-Cours (58) - M Zoran STOJKOVIC01622h53'18''MV21527Sa course
39 14/08/2022Duathlon de Nevers Magny-Cours (58) - M Yvernault YVERNAULT01622h22'21''MS4878Sa course
117 14/08/2022Duathlon de Nevers Magny-Cours (58) - M Florian PESCHER01622h51'40''MS21628Sa course
84 14/07/2022Triathlon du Sénonais (89) - M Nicolas SALES502272h58'48''MV1960Sa course
311 07/07/2022Triathlon des Gorges - Ardèche et Gard (07) - M Catala THOMAS445862h23'45''MSE14347Sa course
15 04/07/2022Ch'TriMan 226 Gravelines (59) - Triathlon XXL Gilbert VALADE02129h51'19''MVE497Sa course
27 04/07/2022Ch'TriMan 226 Gravelines (59) - Triathlon XXL Alexandre DAILLY8821210h18'02''MSE1889Sa course
848 03/07/2022IronMan 70.3 des Sables d'Olonne (85) - L Laurent DENEUVILLE022935h17'58''M45-499862Sa course
788 03/07/2022IronMan 70.3 des Sables d'Olonne (85) - L Fabien FRAPPART7422935h14'43''M45-498965Sa course
189 03/07/2022Champ'Man (51) - Triathlon L Jean-marc LIBERT02396h10'43''MV6116Sa course
2061 03/07/2022IronMan 70.3 des Sables d'Olonne (85) - L Christophe POKIVAT022936h41'57''M40-442568Sa course
161 03/07/2022IronMan 70.3 des Sables d'Olonne (85) - L Emmanuel BATAIL9022934h40'05''M40-441594Sa course
968 03/07/2022IronMan 70.3 des Sables d'Olonne (85) - L Kevin ROSEMOND6422935h24'09''M30-3417857Sa course
755 26/06/2022IronMan de Nice (06) - Triathlon XXL Sebastien THIERRY61179212h47'13''M45-4911651Sa course
364 19/06/2022Triathlon de Deauville (14) - M Kevin ROSEMOND6414112h51'07''MS36475Sa course
34 05/06/2022Triathlon des Lacs de l'Aube (10) - L Alexandre DAILLY884584h26'28''MSE2594Sa course
96 05/06/2022Triathlon des Lacs de l'Aube (10) - S Jean marie LARUE04591h24'05''MVE2880Sa course
128 29/05/2022Triathlon de Dijon (21) - L Loic GUENNO03205h05'28''MVE6359Sa course
36 29/05/2022Triathlon de Dijon (21) - L Christopher ZUTTER1103204h34'13''MSE2391Sa course
245 29/05/2022Triathlon de Dijon (21) - L Nicolas DEWAELE03205h41'42''MVE13421Sa course
286 29/05/2022Triathlon de Dijon (21) - L Raphael PHILIPPE03206h11'12''MVE1708Sa course
181 29/05/2022Triathlon de Dijon (21) - L Vincent JONNIAUX583205h20'33''MVE9642Sa course
216 29/05/2022Triathlon de Dijon (21) - L Christophe BRACONNOT03205h33'18''MVE11531Sa course
147 29/05/2022Triathlon de Dijon (21) - L Sebastien THIERRY613205h09'47''MVE7753Sa course
203 29/05/2022Triathlon de Dijon (21) - L Thery TESTARD03205h27'30''MSE8635Sa course
133 29/05/2022Triathlon de Dijon (21) - L Franck LESUR583205h06'52''MVE6758Sa course
272 29/05/2022Triathlon de Dijon (21) - L Dominique WILS03206h02'40''MVE15912Sa course
94 29/05/2022Triathlon de Dijon (21) - L Jean-samuel MUSSARD03204h55'11''MVE4071Sa course
88 29/05/2022Triathlon de Dijon (21) - L Victor VUILLAUME03204h53'37''MSE4973Sa course
237 29/05/2022Triathlon de Dijon (21) - L Thomas SANH03205h38'04''MVE12724Sa course
186 29/05/2022Triathlon de Dijon (21) - L Alexandre BLONDEAU03205h22'24''MVE9940Sa course
43 29/05/2022Triathlon de Dijon (21) - L Thomas DEWAELE903204h36'58''MVE1488Sa course
52 29/05/2022Triathlon de Dijon (21) - L Olivier LOUYS03204h43'18''MSE3585Sa course
255 29/05/2022Triathlon de Dijon (21) - L Zoran STOJKOVIC03205h49'09''MVE14318Sa course
30010428/05/2022Triathlon de Dijon (21) - S Irene ALVES03162h14'34''FVE235Sa course
269 28/05/2022FrenchMan Triathlon - Carcans (33) - XXL Stephane LAVERGNE040312h29'54''MV34030Sa course
324 28/05/2022Triathlon de Dijon (21) - M Salomon CROMWEL03363h18'22''MVE1343Sa course
188 28/05/2022Triathlon de Dijon (21) - M Romain SENECHAL03362h39'18''MVE7244Sa course
83 28/05/2022Triathlon de Dijon (21) - M Yvernault YVERNAULT03362h23'04''MSE5376Sa course
331 28/05/2022Triathlon de Dijon (21) - M Alain BLONDEAU03363h42'59''MVE1361Sa course
256 28/05/2022Triathlon de Dijon (21) - M Valentin GALARD03362h50'08''MSE12023Sa course
7 28/05/2022Triathlon de Dijon (21) - M Christopher ZUTTER1103362h02'03''MSE6151Sa course
266 28/05/2022Triathlon de Dijon (21) - M Florian PESCHER03362h53'08''MSE12320Sa course
193 28/05/2022Triathlon de Dijon (21) - M Fernando BORREGA RIBERA03362h40'01''MVE7542Sa course
229 28/05/2022Triathlon de Dijon (21) - M Jean-marc ZUTTER03362h45'34''MVE9532Sa course
3205628/05/2022Triathlon de Dijon (21) - M Marie HONDERMARCK73363h15'41''FSE384Sa course
206 28/05/2022Triathlon de Dijon (21) - M Catala THOMAS443362h42'05''MSE10139Sa course
108 28/05/2022Triathlon de Dijon (21) - M Vincent JONNIAUX583362h27'52''MVE3568Sa course
10 28/05/2022Triathlon de Dijon (21) - S Christopher ZUTTER1103161h12'48''MSE9112Sa course
174 28/05/2022Triathlon de Dijon (21) - M Yannick FICHOUX03362h36'52''MVE6548Sa course
3074628/05/2022Triathlon de Dijon (21) - M Cendrine BELAZ03363h07'34''FSE348Sa course
76 28/05/2022Triathlon de Dijon (21) - M Thery TESTARD03362h22'35''MSE4978Sa course
347 22/05/2022Triathlon du Chemin des Dames (02) - S Christophe POKIVAT04441h37'45''M MA12422Sa course
337 22/05/2022Half IronMan 70.3 d'Aix en Provence (13) - Triathlon L Emmanuel BATAIL9018565h01'16''M40-444182Sa course
19 22/05/2022Triathlon du Chemin des Dames (02) - M Thomas DEWAELE905882h20'44''MVE7103Sa course
3789622/05/2022Triathlon du Chemin des Dames (02) - S Cendrine BELAZ04441h41'07''FS4815Sa course
377 22/05/2022IronMan d'Aix en Provence (13) - Triathlon XXL Minh tuan NGUYEN044814h47'42''M45-49545Sa course
12 22/05/2022Triathlon de Vendome (41) - L Gilbert VALADE03765h10'22''MV31104Sa course
10 15/05/2022Triathlon de Châlons-en-Champagne (51) - S Stephane VERRIER961281h11'52''MV3 199Sa course
18 01/05/2022Tri At Bain (35) - M Thomas DEWAELE90872h20'00''MVE782Sa course
133 24/04/2022Triathlon de Saint Tropez (83) - S Minh tuan NGUYEN02091h35'11''MV21435Sa course
134 18/04/2022Duathlon de Meaux (77) - S Stephane VERRIER963711h08'49''MVE2265Sa course
3718518/04/2022Duathlon de Meaux (77) - S Cendrine BELAZ03711h59'23''FSE580Sa course
199 18/04/2022Duathlon de Meaux (77) - S Thibault CRUCY03711h13'35''MVE4147Sa course
61 18/04/2022Duathlon de Meaux (77) - S Christopher ZUTTER1103711h04'04''MSE4485Sa course
123 18/04/2022Duathlon de Meaux (77) - S Alexandre DAILLY883711h08'14''MSE8168Sa course
Pas de résultats pour ce club

Résultats des TRI-CUP de la saison

Résultats du tri-cup-l

AnnéeCltClt/F TCNomIPRGAClt/GA
2022132285 Emmanuel BATAIL90MV121
2022181265 Alexandre DAILLY88MS341
2022418173 Franck LESUR58MV56

Résultats des TRI-CUP de la saison

Résultats du tri-cup-m

AnnéeCltClt/F TCNomIPRGAClt/GA
2022875138 Catala THOMAS44MS3130

Résultats des TRI-CUP des saisons passées

Résultats du TRI-CUP LD

TRI-CUPAnnéeCltClt/F TCNomIPRGAClt/GA
TRI-CUP LD202171287 Stephane VERRIER97MV33
TRI-CUP LD2019629174 Jérémie COHEN54MS388
TRI-CUP LD201994812 Viet hai NGUYEN0MV1141
TRI-CUP LD2018108352 Stephane VERRIER97MV24
TRI-CUP LD2018185297 Christopher ZUTTER108MS116
TRI-CUP LD2018414244 Julien TERNOIR0MS466
TRI-CUP LD2018846138 Jean-samuel MUSSARD0MS4130
TRI-CUP LD2018852138 Hervé PESCHER0MV379
TRI-CUP LD2018908118 Zoran STOJKOVIC0MV2158
TRI-CUP LD2018106554 Thomas SANH0MV1183

Résultats du TRI-CUP M

TRI-CUPAnnéeCltClt/F TCNomIPRGAClt/GA
TRI-CUP M2019190302 Stephane VERRIER97MV218
TRI-CUP M201997156161 Pauline WAUTHIER0FS213
TRI-CUP M2018178294 Christopher ZUTTER108MS126
TRI-CUP M2018338254 Nicolas SALES55MS460
TRI-CUP M2018831142 Jérémie COHEN54MS3115

Podiums du club

Clt/GAGADateEpreuveNomIPRClt FCltNbTempsIP
2MV501/10/2022BayMan (50) - Triathlon LFranck LESUR582146345h27'24''65RésultatsSa course
1MV317/09/2022One2Tri - Lac d'Aiguebelette (73) - Triathlon LStephane VERRIER96211565h23'13''88RésultatsSa course
2MV111/09/2022TriaLong Ile de France (77) - LEmmanuel BATAIL90132344h16'40''100RésultatsSa course
3MS304/09/2022Triathlon de l'Omois (02) - SAlexandre DAILLY88153551h07'15''102RésultatsSa course
2MV504/09/2022Triathlon de l'Omois (02) - SJean-marc ZUTTER01983551h27'04''45RésultatsSa course
2MV604/09/2022Triathlon de l'Omois (02) - SJean-marc LIBERT01063551h19'57''71RésultatsSa course
1MV127/08/2022Duathlon du Château de Chantilly (60) - S 1112241h42'23''51RésultatsSa course
3MV520/08/2022Triathlon de la Madeleine (73) - XLFranck LESUR58992118h39'21''50RésultatsSa course
1MV603/07/2022Champ'Man (51) - Triathlon LJean-marc LIBERT01892396h10'43''16RésultatsSa course
1MV322/05/2022Triathlon de Vendome (41) - LGilbert VALADE0123765h10'22''104RésultatsSa course
1MV3 15/05/2022Triathlon de Châlons-en-Champagne (51) - SStephane VERRIER96101281h11'52''99RésultatsSa course
2MV303/10/2021FrenchMan Triathlon - Carcans (33) - LStephane VERRIER96505894h25'05''94RésultatsSa course
1MV312/09/2021TriaLong Ile de France (77) - LStephane VERRIER96202484h22'04''95RésultatsSa course
1MV212/09/2021Triathlon du Plan d'Eau du Canada (60) - M 182872h12'32''98RésultatsSa course
3FS305/09/2021Triathlon de l'Omois (02) - SPauline WAUTHIER0141473141h29'25''54RésultatsSa course
2MV205/09/2021Triathlon de l'Omois (02) - S 123141h12'49''103RésultatsSa course
2MV605/09/2021Triathlon de l'Omois (02) - SJean-marc LIBERT01083141h25'56''67RésultatsSa course
1MSE05/09/2021Triathlon de l'Omois (02) - SChristopher ZUTTER11073141h10'59''148RésultatsSa course
3MS305/09/2021Triathlon de l'Omois (02) - SAlexandre DAILLY88363141h18'26''91RésultatsSa course
1FS404/07/2021Champ'Man (51) - Triathlon LMarie HONDERMARCK7183493696h45'06''6RésultatsSa course
1MV304/07/2021Triathlon 321 de Lormes (58) - MStephane VERRIER9691142h28'33''104RésultatsSa course
2MV320/06/2021Tours'N Man (37) - Triathlon LStephane VERRIER96469394h19'09''98RésultatsSa course
1MS120/06/2021Tours'N Man (37) - Triathlon LChristopher ZUTTER110409394h16'14''99RésultatsSa course
2MV603/10/2020NatureMan VAR (83) - Triathlon LJean-marc LIBERT05718356h50'35''30RésultatsSa course
3MV503/10/2020NatureMan VAR (83) - Triathlon LFranck LESUR583088356h13'37''62RésultatsSa course
2MV527/09/2020TriGames - Cagnes-Sur-Mer (06) - LFranck LESUR581222646h12'26''50RésultatsSa course
2MV219/09/2020LIGHT ON TRI Madine*** (55) - LStephane VERRIER96201864h41'28''92RésultatsSa course
1MV522/08/2020Triathlon de la Madeleine (73) - MFranck LESUR581423094h17'07''53RésultatsSa course
2MV501/03/2020Duathlon des Princes d'Aragon (83) - SMarc BEVALET151902181h55'46''11RésultatsSa course
1MSE29/09/2019Cross Triathlon de Jablines Annet (77) - MChristopher ZUTTER11023381h37'09''268RésultatsSa course
1MV514/09/2019Triathlon de Toulouse (31) - XXLMarc BEVALET1513920214h55'34''18RésultatsSa course
3MSE03/08/2019Triathlon de la Baie de Somme (80) - MChristopher ZUTTER11052802h06'13''171RésultatsSa course
1MV523/06/2019Triathlon des Vannades (04) - MFranck LESUR581684443h01'10''61RésultatsSa course
2MVE19/05/2019Triathlon du Chemin des Dames (02) - MStephane VERRIER96115242h15'25''107RésultatsSa course
2MSE05/05/2019Triathlon du Sénonais (89) - MTheo REBEYROTTE021372h07'42''191RésultatsSa course
1MV530/09/2018Cross Triathlon de Jablines Annet (77) - MJean-marc LIBERT0593021h54'43''80RésultatsSa course
2MV330/09/2018Cross Triathlon de Jablines Annet (77) - MDominique COURBOULIN0163021h44'58''99RésultatsSa course
2MV222/07/2018Triathlon de Marseille (13) - LStephane VERRIER9682184h57'37''120RésultatsSa course
1MV517/06/2018Triathlon des Sables d'Olonne (85) - MJean-marc LIBERT01172072h52'11''41RésultatsSa course
3MV210/06/2018Tours'N Man (37) - Triathlon XXLStephane VERRIER961763710h13'40''103RésultatsSa course
2MVE09/06/2018Triathlon de Jumièges (76) - MOlivier LOUYS0751772h44'28''57RésultatsSa course
1MV213/05/2018Triathlon de Choisy-au-Bac (60) - LStephane VERRIER9693834h29'08''129RésultatsSa course
1MS124/09/2017Cross Triathlon de Jablines Annet (77) - MChristopher ZUTTER11093011h41'30''124RésultatsSa course
3MV405/08/2017Triathlon de la Baie de Somme (80) - MFranck LESUR58892732h30'29''68RésultatsSa course
1MV205/08/2017Triathlon de la Baie de Somme (80) - MStephane VERRIER96212732h11'11''96RésultatsSa course
2MJU25/09/2016Cross Triathlon de Jablines Annet (77) - MChristopher ZUTTER110162871h46'19''100RésultatsSa course
2MV525/09/2016Cross Triathlon de Jablines Annet (77) - MJean-marc LIBERT0512871h56'51''84RésultatsSa course
3MS225/09/2016Cross Triathlon de Jablines Annet (77) - MAlexandre DAILLY88492871h56'18''85RésultatsSa course
3MJU03/07/2016Triathlon du Mans (72) - MChristopher ZUTTER110642482h18'28''75RésultatsSa course
3MJU19/06/2016Triathlon du Lac des Sapins (69) - MChristopher ZUTTER1101245963h03'57''80RésultatsSa course
2MV419/06/2016Triathlon du Lac des Sapins (69) - MFranck LESUR581555963h07'23''74RésultatsSa course
1MJU04/06/2016Triathlon de Deauville (14) - MChristopher ZUTTER1105711012h38'41''97RésultatsSa course
3MJU22/05/2016Triathlon du Chemin des Dames (02) - MChristopher ZUTTER110873522h28'46''75RésultatsSa course
2MVE27/09/2015Cross Triathlon de Jablines Annet (77) - MStephane VERRIER9672981h48'12''146RésultatsSa course
2MV420/09/2015TriaLong Ile de France (77) - LFranck LESUR58843724h58'32''79RésultatsSa course
1MV520/09/2015TriaLong Ile de France (77) - LJean-marc LIBERT02053725h29'34''45RésultatsSa course
3MV405/07/2015Ch'TriMan 113 Gravelines (59) - Triathlon LFranck LESUR582075845h14'41''65RésultatsSa course
2MV117/05/2015Triathlon de Châlons-en-Champagne (51) - MStephane VERRIER96202502h09'26''95RésultatsSa course
2MV5023/08/2014Triathlon du Château de Chantilly (60) - LMichel DONAT0512225h16'39''79RésultatsSa course
1MV406/07/2014HalfTriMan (23) - Triathlon LFranck LESUR5833925h22'05''66RésultatsSa course
3MS306/07/2014HalfTriMan (23) - Triathlon LVictor VUILLAUME013924h56'33''90RésultatsSa course
3MV306/07/2014HalfTriMan (23) - Triathlon LJean-marc ZUTTER066925h51'59''30RésultatsSa course
3MV328/07/2010Triathlon de l'Alpe d'Huez (38) - LBruno CANCIANI01157947h15'47''87RésultatsSa course
2MV330/08/2009Ch'TriMan 226 de Cambrai (59)Bruno CANCIANI06530611h14'25''80RésultatsSa course
2MV3 07/06/2009Triathlon de Belfort (90) - LBruno CANCIANI0611577h16'28''63RésultatsSa course
2MV201/06/2008Triathlon de Belfort (90) - LBruno CANCIANI0552734h27'34''82RésultatsSa course
3MS101/08/2007Triathlon de l'Alpe d'Huez (38) - LJulien ZUTTER0592477h57'45''78RésultatsSa course
2MV213/06/2004Triathlon de Lorient (56) - LBernard BAUDRY01525334h50'30''72RésultatsSa course

Résultats aux championnats de France

DateNomIPRClt FCltNbTempsGAClt/GA
27/09/2020Franck LESUR581112306h12'26''MV52RésultatsSa course
25/08/2019Franck LESUR582023016h19'17''MV57RésultatsSa course
02/07/2017 2116535h05'19''MV131RésultatsSa course
02/07/2017Thery TESTARD02516535h11'07''MS333RésultatsSa course
14/06/2015Gilles GALY04364536h41'58''MV415RésultatsSa course
14/06/2015Victor VUILLAUME01634535h09'50''MS323RésultatsSa course
14/06/2015Minh NGUYEN24404536h51'35''MS460RésultatsSa course
14/06/2015Franck LESUR581834535h14'41''MV43RésultatsSa course
14/06/2015Sebastien THIERRY612174535h23'09''MV140RésultatsSa course
14/06/2015Denis BOUTEILLE02414535h28'23''MV311RésultatsSa course
14/06/2015Jean-marc ZUTTER02934535h36'58''MV47RésultatsSa course
14/06/2015Stephane VERRIER96854534h48'53''MV114RésultatsSa course
14/06/2015Hervé PESCHER03194535h41'54''MV245RésultatsSa course
14/06/2015Zoran STOJKOVIC03794536h03'18''MV173RésultatsSa course
14/06/2015 1314535h03'30''MS421RésultatsSa course
14/06/2015Thomas SANH04064536h17'02''MS454RésultatsSa course
14/06/2015Alexandre BLONDEAU01564535h08'30''MS424RésultatsSa course
19/05/2012 2115435h31'54''MS441RésultatsSa course
19/05/2012Fabien FRAPPART743515435h56'47''MS460RésultatsSa course
03/07/2011Olivier MACE04244856h00'59''MSE189RésultatsSa course
03/07/2011Bruno CANCIANI01574854h58'54''MSE42RésultatsSa course
03/07/2011Remi CHAZARENC661584854h58'55''MSE43RésultatsSa course

Coureurs actuels du Club

Christopher ZUTTER
IPR : 110
Catégorie de niveau : Elite 3ème classe
Stephane VERRIER
IPR : 96
Catégorie de niveau : 1ère catégorie
Emmanuel BATAIL
IPR : 90
Catégorie de niveau : 2ème catégorie
Alexandre DAILLY
IPR : 88
Catégorie de niveau : 2ème catégorie
Fabien FRAPPART
IPR : 74
Catégorie de niveau : 3ème catégorie
Kevin ROSEMOND
IPR : 64
Catégorie de niveau : 3ème catégorie
Sebastien THIERRY
IPR : 61
Catégorie de niveau : 3ème catégorie
Franck LESUR
IPR : 58
Catégorie de niveau : 3ème catégorie
Vincent JONNIAUX
IPR : 58
Catégorie de niveau : 3ème catégorie
Nicolas SALES
IPR : 50
Catégorie de niveau : 4ème catégorie
Catala THOMAS
IPR : 44
Catégorie de niveau : 4ème catégorie
Marie HONDERMARCK
IPR : 7
Catégorie de niveau : 5ème catégorie
Jean-marc LIBERT
IPR : N/A
Catégorie de niveau : Non classé
Nathalie PERRIN
IPR : N/A
Catégorie de niveau : Non classée
Bounsy LY
IPR : N/A
Catégorie de niveau : Non classé
Stephane LAVERGNE
IPR : N/A
Catégorie de niveau : Non classé
Victor VUILLAUME
IPR : N/A
Catégorie de niveau : Non classé
Loic GUENNO
IPR : N/A
Catégorie de niveau : Non classé
Raphael PHILIPPE
IPR : N/A
Catégorie de niveau : Non classé
Arnaud BRUNO
IPR : N/A
Catégorie de niveau : Non classé
Arnaud BUTEUX
IPR : N/A
Catégorie de niveau : Non classé
Sébastien POINTIER
IPR : N/A
Catégorie de niveau : Non classé
Stephane MARCHAND
IPR : N/A
Catégorie de niveau : Non classé
Romain SENECHAL
IPR : N/A
Catégorie de niveau : Non classé
Minh tuan NGUYEN
IPR : N/A
Catégorie de niveau : Non classé
Laurent DENEUVILLE
IPR : N/A
Catégorie de niveau : Non classé
Irene ALVES
IPR : N/A
Catégorie de niveau : Non classée
Jean-marc ZUTTER
IPR : N/A
Catégorie de niveau : Non classé
Yvernault YVERNAULT
IPR : N/A
Catégorie de niveau : Non classé
Yannick FICHOUX
IPR : N/A
Catégorie de niveau : Non classé
Alexandre BLONDEAU
IPR : N/A
Catégorie de niveau : Non classé
Nicolas DEWAELE
IPR : N/A
Catégorie de niveau : Non classé
Valentin GALARD
IPR : N/A
Catégorie de niveau : Non classé
Cendrine BELAZ
IPR : N/A
Catégorie de niveau : Non classée
Pauline WAUTHIER
IPR : N/A
Catégorie de niveau : Non classée
Jean marie LARUE
IPR : N/A
Catégorie de niveau : Non classé
Salomon CROMWEL
IPR : N/A
Catégorie de niveau : Non classé
Gilbert VALADE
IPR : N/A
Catégorie de niveau : Non classé
Ludovic LHOTE
IPR : N/A
Catégorie de niveau : Non classé
Fernando BORREGA RIBERA
IPR : N/A
Catégorie de niveau : Non classé
Zoran STOJKOVIC
IPR : N/A
Catégorie de niveau : Non classé
Thomas SANH
IPR : N/A
Catégorie de niveau : Non classé
Christophe BRACONNOT
IPR : N/A
Catégorie de niveau : Non classé
Thery TESTARD
IPR : N/A
Catégorie de niveau : Non classé
Florian PESCHER
IPR : N/A
Catégorie de niveau : Non classé
Christophe DEBRUYNE
IPR : N/A
Catégorie de niveau : Non classé
Jean-samuel MUSSARD
IPR : N/A
Catégorie de niveau : Non classé
Thibault CRUCY
IPR : N/A
Catégorie de niveau : Non classé
Olivier LOUYS
IPR : N/A
Catégorie de niveau : Non classé
Mylene ZIMMERMANN
IPR : N/A
Catégorie de niveau : Non classée
Etienne THOMAS
IPR : N/A
Catégorie de niveau : Non classé
Alain BLONDEAU
IPR : N/A
Catégorie de niveau : Non classé
IPR : N/A
Catégorie de niveau : 
IPR : N/A
Catégorie de niveau : 
IPR : N/A
Catégorie de niveau :